C4984 Weather Reports


Display with metric or nautical units.
time (UTC)temp
F
wind
direction
speed
MPH
gust
MPH
rain 1hr
in
rain 24hr
in
rain mn
in
humidity
%
barometer
mb
20260903201658 99 170 1.0 5.0 0.00 0.00 0.00 49 1009.9
20260903200704 100 168 1.0 5.0 0.00 0.00 0.00 50 1010.0
20260903195636 101 158 1.0 4.0 0.00 0.00 0.00 47 1010.0
20260903194604 101 120 1.0 4.0 0.00 0.00 0.00 47 1010.0
20260903193619 101 22 0.0 4.0 0.00 0.00 0.00 45 1010.3
20260903192616 100 275 1.0 8.0 0.00 0.00 0.00 45 1010.5
20260903191603 100 131 1.0 8.0 0.00 0.00 0.00 45 1010.5
20260903185509 100 201 1.0 5.0 0.00 0.00 0.00 45 1010.9
20260903184443 101 126 1.0 6.0 0.00 0.00 0.00 42 1010.9
20260903183446 100 123 1.0 6.0 0.00 0.00 0.00 44 1011.1
20260903182422 100 97 0.0 6.0 0.00 0.00 0.00 46 1011.1
20260903181439 100 177 0.0 6.0 0.00 0.00 0.00 45 1011.1
20260903180417 100 297 0.0 4.0 0.00 0.00 0.00 49 1011.2
20260903175422 99 278 0.0 2.0 0.00 0.00 0.00 49 1011.5
20260903174404 98 175 1.0 5.0 0.00 0.00 0.00 50 1011.5
20260903173359 97 248 1.0 5.0 0.00 0.00 0.00 51 1011.5
20260903172406 97 120 1.0 3.0 0.00 0.00 0.00 52 1011.6
20260903171349 97 112 1.0 3.0 0.00 0.00 0.00 56 1011.7
20260903170412 97 107 1.0 4.0 0.00 0.00 0.00 56 1011.7
20260903165431 97 159 1.0 4.0 0.00 0.00 0.00 55 1012.0
20260903163352 96 155 0.0 2.0 0.00 0.00 0.00 54 1012.1
20260903162333 96 11 0.0 1.0 0.00 0.00 0.00 60 1012.2
20260903161326 95 1 0.0 2.0 0.00 0.00 0.00 63 1012.2
20260903160258 94 284 0.0 2.0 0.00 0.00 0.00 64 1012.2
20260903155306 93 41 0.0 3.0 0.00 0.00 0.00 68 1012.3
20260903152042 91 94 0.0 3.0 0.00 0.00 0.00 70 1012.4
20260903151030 90 87 0.0 4.0 0.00 0.00 0.00 73 1012.6
20260903145956 90 82 1.0 4.0 0.00 0.00 0.00 73 1012.6
20260903144949 90 88 0.0 3.0 0.00 0.00 0.00 73 1012.4
20260903143921 90 46 0.0 3.0 0.00 0.00 0.00 75 1012.3
20260903142923 88 304 0.0 3.0 0.00 0.00 0.00 75 1012.3
20260903140712 85 143 0.0 4.0 0.00 0.00 0.00 82 1012.3
20260903135714 84 158 0.0 3.0 0.00 0.00 0.00 83 1012.4
20260903134727 82 207 0.0 3.0 0.00 0.00 0.00 88 1012.4
20260903133700 81 169 0.0 2.0 0.00 0.00 0.00 90 1012.3
20260903131510 78 76 0.0 1.0 0.00 0.00 0.00 94 1012.4
20260903130438 78 108 0.0 0.0 0.00 0.00 0.00 94 1012.4
20260903125422 77 204 0.0 2.0 0.00 0.00 0.00 95 1012.4
20260903124404 77 111 0.0 2.0 0.00 0.00 0.00 97 1012.6
20260903122248 76 246 0.0 0.0 0.00 0.00 0.00 98 1012.5
20260903120128 75 155 0.0 0.0 0.00 0.00 0.00 98 1012.3
20260903112834 74 11 0.0 0.0 0.00 0.00 0.00 98 1012.1
20260903111814 73 11 0.0 0.0 0.00 0.00 0.00 98 1012.1
20260903105645 73 11 0.0 0.0 0.00 0.00 0.00 97 1011.7
20260903104658 73 11 0.0 0.0 0.00 0.00 0.00 97 1011.7
20260903103711 73 11 0.0 0.0 0.00 0.00 0.00 97 1011.6
20260903102722 73 11 0.0 0.0 0.00 0.00 0.00 97 1011.5
20260903101733 73 11 0.0 0.0 0.00 0.00 0.00 97 1011.5
20260903095553 73 11 0.0 0.0 0.00 0.00 0.00 96 1011.2
20260903094541 73 11 0.0 0.0 0.00 0.00 0.00 96 1011.2
20260903092414 73 11 0.0 0.0 0.00 0.00 0.00 96 1011.2
20260903091414 73 11 0.0 1.0 0.00 0.00 0.00 96 1011.2
20260903090419 73 11 0.0 0.0 0.00 0.00 0.00 96 1011.1
20260903085428 73 11 0.0 0.0 0.00 0.00 0.00 96 1011.1
20260903084445 73 11 0.0 0.0 0.00 0.00 0.00 96 1011.1
20260903082339 73 11 0.0 0.0 0.00 0.00 0.00 95 1011.1
20260903081347 73 11 0.0 0.0 0.00 0.00 0.00 95 1011.1
20260903075219 74 11 0.0 0.0 0.00 0.00 0.00 95 1011.1
20260903074231 74 11 0.0 0.0 0.00 0.00 0.00 95 1010.9
20260903073215 74 11 0.0 0.0 0.00 0.00 0.00 95 1010.9
20260903072207 74 11 0.0 0.0 0.00 0.00 0.00 95 1010.9
20260903071142 74 11 0.0 0.0 0.00 0.00 0.00 95 1010.9
20260903070144 74 11 0.0 0.0 0.00 0.00 0.00 95 1010.9
20260903065139 74 11 0.0 0.0 0.00 0.00 0.00 94 1010.9
20260903064112 74 11 0.0 0.0 0.00 0.00 0.00 94 1011.1
20260903063132 74 11 0.0 0.0 0.00 0.00 0.00 94 1011.1
20260903062155 74 11 0.0 0.0 0.00 0.00 0.00 94 1011.2
20260903061135 74 11 0.0 0.0 0.00 0.00 0.00 94 1011.2
20260903060113 74 11 0.0 0.0 0.00 0.00 0.00 93 1011.2
20260903055127 74 11 0.0 0.0 0.00 0.00 0.00 93 1011.4
20260903054131 74 11 0.0 0.0 0.00 0.00 0.00 94 1011.3
20260903053129 74 11 0.0 0.0 0.00 0.00 0.00 94 1011.3
20260903052134 74 11 0.0 0.0 0.00 0.00 0.00 94 1011.3
20260903051136 74 11 0.0 0.0 0.00 0.00 0.00 93 1011.3
20260903050140 74 11 0.0 0.0 0.00 0.00 0.00 93 1011.3
20260903043005 74 11 0.0 0.0 0.00 0.00 0.00 92 1011.3
20260903041958 74 11 0.0 0.0 0.00 0.00 0.00 92 1011.5
20260903040948 74 11 0.0 0.0 0.00 0.00 0.00 92 1011.5
20260903035947 75 11 0.0 0.0 0.00 0.00 0.00 91 1011.5
20260903035004 75 11 0.0 0.0 0.00 0.00 0.00 91 1011.7
20260903033958 75 11 0.0 0.0 0.00 0.00 0.00 91 1011.7
20260903032933 75 11 0.0 0.0 0.00 0.00 0.00 90 1011.7
20260903031949 75 11 0.0 0.0 0.00 0.00 0.00 89 1011.7
20260903030939 76 11 0.0 0.0 0.00 0.00 0.00 89 1011.7
20260903025953 76 11 0.0 0.0 0.00 0.00 0.00 89 1011.7
20260903024938 76 11 0.0 0.0 0.00 0.00 0.00 88 1011.7
20260903023907 76 11 0.0 0.0 0.00 0.00 0.00 87 1011.7
20260903022844 76 11 0.0 0.0 0.00 0.00 0.00 87 1011.7
20260903015544 78 56 0.0 0.0 0.00 0.00 0.00 85 1011.8
20260903014544 78 56 0.0 0.0 0.00 0.00 0.00 84 1011.8
20260903012437 79 30 1.0 3.0 0.00 0.00 0.00 83 1011.9
20260903005225 80 97 1.0 5.0 0.00 0.00 0.00 83 1012.4
20260903004201 80 33 3.0 6.0 0.00 0.00 0.00 83 1011.9
20260903000930 85 5 5.0 10.0 0.00 0.00 0.00 73 1011.7
20260902235856 88 8 0.0 3.0 0.00 0.00 0.00 71 1011.1
20260902233746 91 220 0.0 0.0 0.00 0.00 0.00 62 1010.7
20260902232730 92 220 0.0 0.0 0.00 0.00 0.00 59 1011.2
20260902231750 93 220 0.0 0.0 0.00 0.00 0.00 57 1011.2
20260902225607 98 220 0.0 0.0 0.00 0.00 0.00 51 1010.9
20260902224542 100 220 0.0 0.0 0.00 0.00 0.00 49 1010.9
20260902223509 100 220 0.0 0.0 0.00 0.00 0.00 48 1010.9
20260902222437 100 220 0.0 0.0 0.00 0.00 0.00 50 1011.0
20260902221410 100 220 0.0 0.0 0.00 0.00 0.00 48 1011.0
20260902220343 100 220 0.0 0.0 0.00 0.00 0.00 49 1011.0
20260902215320 101 214 0.0 0.0 0.00 0.00 0.00 47 1010.9
20260902214313 101 181 0.0 3.0 0.00 0.00 0.00 44 1010.8
20260902213302 100 273 0.0 0.0 0.00 0.00 0.00 49 1010.8
20260902212259 100 0 0.0 3.0 0.00 0.00 0.00 50 1010.9
20260902211309 99 110 0.0 2.0 0.00 0.00 0.00 52 1010.9
20260902210314 99 71 0.0 1.0 0.00 0.00 0.00 47 1010.9
20260902205306 99 3 0.0 3.0 0.00 0.00 0.00 48 1010.7
20260902204257 100 208 0.0 2.0 0.00 0.00 0.00 48 1011.0
20260902203242 100 154 0.0 3.0 0.00 0.00 0.00 48 1011.0